Tracking 28790 objects as of 19-Apr-2024
HD Live streaming from Space Station
objects crossing your sky now

COSMOS 2082

Track COSMOS 2082 now!
10-day predictions
COSMOS 2082 is classified as:


NORAD ID: 20624
Int'l Code: 1990-046A
Perigee: 840.1 km
Apogee: 861.8 km
Inclination: 71.0 °
Period: 101.8 minutes
Semi major axis: 7221 km
RCS: 11.7952 m2 (large)
Launch date: May 22, 1990
Source: Commonwealth of Independent States (former USSR) (CIS)
Launch site: TYURATAM MISSILE AND SPACE COMPLEX (TTMTR)
Your satellite tracking list
Your tracking list is empty




NASA's NSSDC Master Catalog

Two Line Element Set (TLE):
1 20624U 90046A   24109.22191321  .00000305  00000-0  18345-3 0  9992
2 20624  71.0435  27.0773 0015038 186.7575 173.3347 14.14567746749977
Source of the keplerian elements: AFSPC